Theta_e
350 349 348 349 351 352 352 350 351 352 350 348 350 351 349 344 344 346 349 349 350 351 352 353 353 353 353 352 352 352 351 347 347 350 350 350 346 346 346 346 345 349 348
349 350 350 351 352 352 352 352 351 348 347 349 352 353 353 349 347 350 349 350 351 351 353 353 353 352 352 350 351 351 346 344 340 343 350 349 348 340 345 346 349 349 345
349 350 350 349 351 350 351 347 347 349 347 345 347 352 352 352 351 351 351 351 349 351 353 354 353 353 353 344 349 347 347 348 345 345 343 344 345 348 343 345 349 348 348
346 348 349 347 349 351 351 352 352 352 351 350 349 349 352 352 352 353 354 352 350 351 352 353 354 353 352 341 345 347 346 345 344 346 344 343 346 346 346 348 349 347 348
346 350 351 350 350 351 352 349 352 350 351 349 351 352 350 352 352 353 353 353 353 352 350 349 352 351 343 336 343 344 341 344 345 347 341 339 344 347 347 345 349 345 344
350 351 353 352 352 352 352 348 350 352 348 350 349 349 351 351 352 352 352 352 353 353 352 351 351 350 340 342 345 345 345 344 343 344 344 342 344 343 344 348 349 348 343
349 351 352 351 353 352 351 350 352 351 346 350 351 351 351 351 351 352 352 352 352 352 351 353 350 351 343 342 344 342 343 345 343 340 344 347 349 343 344 345 347 348 338
347 350 352 351 351 352 351 353 351 351 351 350 351 351 351 351 351 352 352 352 352 352 352 351 348 351 339 339 342 344 343 344 346 346 339 339 345 343 344 345 346 346 347
349 351 352 352 352 353 351 353 352 352 352 351 351 350 350 351 349 350 351 351 351 352 352 347 343 339 334 338 344 340 340 340 345 343 340 342 344 347 347 345 343 346 346
348 349 350 351 352 350 352 352 352 351 351 351 344 351 344 346 350 349 348 351 352 351 342 340 340 332 332 342 343 342 341 342 340 340 340 346 348 348 348 349 346 339 345
348 348 350 352 352 351 351 350 348 351 345 341 343 345 348 349 348 350 347 350 346 342 341 340 338 335 338 340 341 343 345 346 346 346 342 346 348 345 343 343 342 335 339
348 350 351 351 352 351 348 349 350 350 350 349 348 346 349 348 343 347 345 343 340 341 344 346 346 344 349 346 342 341 345 344 346 346 342 344 343 345 343 339 336 336 335
349 351 349 351 350 352 349 350 351 351 349 349 347 349 348 342 340 339 342 343 344 346 348 346 348 349 350 350 348 340 340 342 340 339 335 344 342 347 347 339 337 339 338
350 351 353 352 354 351 340 349 351 350 349 350 348 347 344 348 347 347 348 348 349 347 348 347 343 343 342 342 340 338 338 340 340 333 327 329 331 332 338 336 337 334 335
350 351 352 352 351 351 346 349 348 348 348 344 346 346 348 344 346 344 341 345 345 347 348 348 346 349 346 343 344 342 342 343 344 341 330 329 329 328 328 329 331 334 337
348 346 350 354 351 353 351 348 340 345 349 348 347 348 348 346 345 344 346 343 346 349 348 348 344 347 343 345 345 345 345 344 347 345 344 340 338 338 337 336 335 335 336
345 347 347 349 352 352 351 351 350 348 351 349 347 351 349 347 349 346 347 347 346 346 342 349 351 347 347 344 343 346 345 346 346 347 348 347 346 342 341 339 339 339 339
346 347 346 346 349 351 350 351 349 340 338 350 350 349 353 348 350 348 347 348 346 346 346 348 349 346 347 344 344 345 344 345 346 347 346 349 348 351 345 344 341 341 340
346 348 346 347 348 351 350 352 353 349 350 351 352 352 351 352 352 352 350 348 345 349 348 348 342 345 347 344 343 342 342 345 346 347 346 347 347 349 350 348 346 348 347
346 347 346 348 348 351 350 352 352 352 351 353 350 352 352 353 352 350 350 348 348 349 348 345 350 347 345 344 346 343 345 345 344 346 345 348 345 347 350 349 350 352 349
347 348 348 352 349 353 352 350 351 353 353 351 354 353 353 353 352 350 352 342 352 348 350 350 344 345 347 344 347 345 343 342 344 345 345 346 344 347 345 348 352 350 351
347 348 348 353 349 354 348 352 353 350 353 352 353 353 353 353 352 353 350 346 352 351 351 351 351 350 346 343 348 352 354 347 343 343 343 344 344 345 347 348 349 352 353
347 348 349 354 350 353 350 353 348 349 354 353 352 353 353 352 352 353 354 351 349 352 350 350 351 347 350 342 345 350 356 355 345 342 343 344 346 347 349 348 351 352 354
346 347 350 356 352 352 353 352 354 352 351 353 353 353 353 351 352 353 352 355 352 352 349 351 350 350 350 351 343 345 349 351 357 356 345 345 347 349 348 351 350 353 354
345 347 351 355 354 354 354 351 351 351 338 352 350 352 353 352 351 352 353 353 351 349 349 351 349 352 354 352 352 345 345 347 348 355 356 351 350 349 349 350 351 352 354
345 346 351 354 356 353 355 355 353 352 350 351 350 351 354 351 353 352 352 353 354 352 352 354 351 351 354 351 349 352 352 350 352 355 356 353 349 347 347 349 349 350 352
Wind_Speed
17 16 16 16 15 15 13 13 14 14 15 14 15 16 16 17 18 17 19 19 20 20 20 18 18 19 20 20 20 20 22 24 25 24 23 23 22 20 21 23 22 20 20
21 19 18 17 15 14 14 13 13 13 13 13 14 14 15 14 15 17 17 18 18 19 19 18 18 18 19 19 18 18 21 23 25 27 24 22 21 22 20 22 20 20 19
24 20 18 18 15 14 13 13 12 12 12 11 11 13 13 13 13 16 16 17 18 19 18 18 18 18 18 18 16 17 18 17 19 22 24 22 21 21 21 20 19 18 19
23 21 18 17 15 14 13 12 13 13 12 11 11 12 13 12 13 14 15 16 17 17 18 17 18 18 16 18 18 17 13 10 8 7 21 21 19 19 18 17 17 18 18
25 22 20 18 15 14 14 13 12 11 13 11 12 13 12 12 13 13 14 15 16 17 16 16 16 16 16 19 17 16 17 23 23 29 26 21 18 17 15 15 14 15 16
24 20 19 18 15 14 14 13 12 12 13 12 12 12 11 11 13 13 14 15 15 15 14 14 14 16 17 18 16 15 13 16 21 22 20 18 18 15 15 15 16 15 15
25 21 17 17 16 14 13 14 13 12 13 13 13 13 14 14 13 13 14 15 15 13 13 14 15 14 14 16 15 15 19 19 25 22 21 16 17 15 14 14 14 15 15
25 20 16 15 14 14 13 14 14 14 14 15 14 15 15 14 14 14 15 15 14 15 14 15 15 13 14 16 17 15 15 18 19 22 16 16 14 14 13 12 12 13 12
25 21 16 14 13 14 14 14 15 14 14 15 15 15 15 14 14 15 14 15 15 15 15 15 14 15 17 17 17 18 19 16 19 20 16 14 13 12 11 11 12 10 10
23 22 19 15 14 14 14 14 14 15 15 14 15 15 17 17 15 15 16 15 14 13 14 14 15 17 21 20 17 13 12 14 13 13 14 14 11 10 9 9 9 8 10
26 23 19 17 16 16 13 12 14 14 15 16 17 13 13 16 15 14 14 14 13 13 12 12 13 16 18 17 14 8 4 11 19 14 13 11 9 9 9 8 6 7 7
23 19 17 17 17 19 15 14 13 13 12 10 13 16 15 15 16 14 14 13 14 13 12 7 8 9 9 6 11 7 5 19 20 12 12 10 7 7 6 6 6 6 5
27 22 20 13 18 15 16 14 14 16 13 14 12 11 12 13 16 16 16 14 13 8 5 7 7 6 5 6 9 7 8 17 19 11 8 7 6 5 4 4 4 4 4
25 23 21 20 15 15 8 19 13 14 13 15 12 14 15 11 7 13 11 10 6 6 2 3 15 7 9 11 13 8 11 13 11 11 8 5 4 4 2 2 2 2 3
28 22 17 16 8 10 25 11 14 15 11 14 13 9 8 10 11 14 11 7 9 8 3 8 4 3 12 11 10 11 10 8 11 10 13 8 6 4 2 2 2 2 3
21 19 16 12 7 3 19 19 15 15 6 14 13 7 12 14 9 13 10 10 6 11 8 6 2 9 12 11 9 8 10 5 7 7 7 11 10 9 7 5 4 3 3
17 19 14 11 10 7 9 17 9 8 11 14 13 7 10 13 7 7 7 7 6 4 7 4 6 6 2 10 6 9 9 8 5 2 8 4 5 7 10 9 6 4 4
19 19 14 14 13 10 10 9 13 10 8 11 16 11 8 9 9 7 4 6 9 6 3 2 6 7 2 9 6 8 7 7 6 5 2 2 1 4 5 8 6 7 7
22 19 15 17 14 13 10 9 15 11 14 11 15 13 10 9 8 4 2 6 9 1 8 4 3 6 9 5 7 8 3 9 8 10 2 5 3 4 2 5 5 3 6
20 18 13 15 18 11 10 4 15 12 9 12 8 11 10 11 7 6 8 4 8 2 6 4 3 7 2 2 8 6 1 2 5 4 5 8 4 2 6 5 5 5 3
20 18 15 16 18 13 10 9 11 8 8 11 13 13 11 12 8 8 6 9 5 5 6 2 1 3 7 4 9 5 8 7 5 9 3 9 2 5 2 3 4 6 6
23 18 18 19 20 16 12 4 9 5 8 7 14 11 11 9 9 7 10 7 5 9 7 2 3 7 5 6 8 4 2 10 6 7 2 2 0 2 9 5 1 4 4
24 21 19 19 21 18 15 7 9 8 8 9 11 13 12 9 7 7 5 5 9 7 6 4 1 3 7 4 5 4 3 1 6 8 8 3 3 3 1 4 5 2 5
27 24 22 18 19 17 8 10 10 5 6 7 6 17 13 11 10 6 6 3 6 2 6 3 2 3 3 10 4 4 3 2 0 1 10 7 8 8 8 8 2 2 7
29 27 25 21 21 17 13 14 13 9 10 11 8 13 12 13 10 10 8 5 4 2 9 4 3 3 9 9 14 3 5 2 4 5 3 7 12 8 9 6 8 9 8
30 29 28 24 22 20 15 13 13 18 14 17 15 12 13 12 12 12 11 7 6 8 10 5 4 2 5 8 12 13 13 4 14 8 2 2 4 6 1 6 4 3 8
Wind_Direction
133 131 124 118 115 116 115 105 98 94 89 84 81 83 84 84 80 77 79 78 81 84 81 83 86 85 85 85 89 92 93 93 96 91 85 82 87 89 92 84 80 77 75
132 131 122 116 116 113 106 101 99 96 95 93 89 86 84 83 83 79 80 82 82 82 83 85 90 89 87 87 93 96 96 94 96 93 88 80 79 87 85 83 80 80 74
131 132 125 124 117 111 108 103 95 93 93 95 96 90 89 88 87 87 84 84 86 87 89 86 87 88 85 93 99 98 102 102 102 96 90 81 80 79 78 82 77 82 80
131 130 127 124 121 114 107 100 101 102 99 97 97 100 95 95 95 92 89 88 88 88 88 83 86 87 91 97 101 94 88 80 86 123 90 87 80 78 80 81 80 80 76
130 127 130 126 119 112 106 101 99 100 100 95 95 101 98 100 98 96 93 89 90 88 85 92 91 88 92 101 103 90 77 79 77 89 91 90 85 83 84 82 75 80 79
124 125 127 125 118 114 106 105 103 99 105 98 98 97 100 103 101 100 97 93 90 86 84 88 97 88 92 105 101 88 79 74 90 85 81 92 91 88 87 85 80 80 76
123 127 125 125 120 113 112 109 106 103 108 104 106 97 105 101 102 106 100 97 93 87 88 93 101 91 92 108 97 85 67 93 100 94 89 83 95 85 87 85 83 76 73
127 127 128 127 124 118 118 116 112 109 107 112 107 103 105 103 106 104 101 97 91 87 98 102 107 99 96 110 107 89 78 81 96 99 93 97 94 90 89 87 83 81 73
123 125 132 132 129 123 122 120 114 115 112 116 115 115 112 110 106 103 104 99 94 95 104 103 99 93 97 108 111 99 99 105 101 90 90 92 92 91 90 85 76 76 77
127 131 138 141 137 132 126 125 121 117 117 120 119 117 113 108 113 111 106 103 100 105 108 106 101 101 107 109 114 120 118 106 106 96 99 98 96 89 87 81 75 75 77
129 142 138 140 143 135 127 130 125 125 119 115 112 113 118 109 110 109 122 112 110 112 114 114 111 112 114 109 94 97 112 120 108 100 100 97 102 87 85 95 87 79 74
107 128 138 134 144 153 134 138 131 130 137 128 121 105 112 143 118 123 119 114 113 112 103 94 125 135 126 108 95 75 56 128 106 93 106 109 111 100 92 74 76 72 68
137 125 132 150 142 168 144 158 147 138 122 125 134 128 129 124 114 120 119 121 113 109 91 55 7 292 300 245 190 108 133 115 109 105 111 116 111 102 116 78 74 68 52
114 130 138 137 153 146 140 137 131 148 145 139 114 128 125 122 114 161 143 153 138 117 18 127 93 116 84 53 78 71 69 92 103 93 100 111 119 122 119 95 75 55 32
147 141 134 128 146 152 144 148 125 129 125 127 138 144 141 124 117 116 123 135 135 139 178 82 166 39 108 91 67 90 82 52 132 99 89 98 95 96 111 102 75 39 14
136 126 123 133 169 72 115 121 137 158 174 147 131 118 129 126 122 131 128 131 115 111 97 51 117 95 74 112 97 79 88 90 57 149 112 103 90 86 76 70 61 43 21
142 130 140 144 143 119 110 126 122 139 127 136 127 135 102 123 100 156 113 106 121 118 115 163 295 335 118 109 121 139 115 120 91 82 190 158 124 103 76 48 43 37 26
139 136 162 157 145 144 141 141 122 210 171 144 149 140 128 136 128 155 149 133 120 141 107 30 309 301 215 137 145 145 136 156 165 147 82 145 298 185 100 48 49 47 32
136 145 179 146 153 154 164 158 146 145 147 120 133 148 149 155 170 185 109 141 146 259 110 95 21 348 342 133 164 138 136 198 182 159 112 155 116 208 171 36 342 356 35
144 153 176 155 147 153 177 188 138 145 147 126 130 147 150 153 155 179 158 168 136 85 128 160 311 262 -0 299 343 147 171 98 149 149 205 201 95 158 146 359 330 301 17
151 165 161 151 152 156 179 183 143 171 154 142 133 163 137 144 144 149 178 181 137 145 118 187 171 341 346 28 356 176 165 147 182 202 199 131 84 150 171 239 26 32 341
153 168 168 155 165 176 192 215 168 158 211 153 134 144 136 142 142 117 155 170 157 148 146 231 339 336 294 13 352 10 202 204 197 116 136 140 355 199 164 141 160 26 343
156 167 174 166 179 191 193 161 171 218 173 163 148 151 147 147 141 145 130 150 145 165 159 185 201 324 354 19 3 12 10 345 135 159 183 117 179 52 330 174 152 53 14
160 168 175 175 185 200 199 175 171 202 10 178 149 160 158 158 157 151 148 159 151 134 177 145 234 338 319 354 307 49 72 67 30 79 157 174 159 117 56 99 100 83 55
163 168 172 182 185 195 192 163 177 181 215 222 173 146 159 159 165 167 174 171 152 220 168 215 185 327 17 7 356 144 33 283 253 220 193 186 202 170 117 79 29 28 23
165 168 169 183 190 196 194 193 186 179 184 231 196 154 165 164 168 177 178 180 175 208 169 160 193 354 351 357 351 4 1 38 330 78 256 34 96 115 121 126 84 9 46